This demonstration page uses our WeatherBlox Daily Observations layout. Learn more.

41.55636, -103.73856

Hourly Observations for January 5, 2020

Temp ( °F °C ) Dew Point ( °F °C ) Humidity (%) Winds ( mph kmh ) Pressure ( in mb ) Visibility ( mi km ) Precip ( " mm )
12:58 am 00:58 Clear 40 4.3 26 -3.1 59 59 W 12 19 30.05 1018 10 16.0934 0 0
1:58 am 01:58 Clear 41 5 26 -3.5 55 55 W 20 31 30.09 1019 10 16.0934 0 0
2:58 am 02:58 Clear 42 5.7 22 -5.3 45 45 NW 7 11 30.06 1018 10 16.0934 0 0
3:58 am 03:58 Clear 44 6.8 21 -6.2 39 39 WNW 24 39 30.06 1018 10 16.0934 0 0
4:58 am 04:58 Clear 43 6.3 20 -6.6 39 39 WNW 44 70 30.06 1018 10 16.0934 0 0
5:58 am 05:58 Clear 40 4.7 21 -6.1 46 46 WNW 35 56 30.09 1019 10 16.0934 0 0
6:58 am 06:58 Clear 39 3.9 21 -6 49 49 WNW 32 52 30.15 1021 10 16.0934 0 0
7:58 am 07:58 Clear 36 2 22 -5.4 58 58 NW 20 31 30.2 1023 10 16.0934 0 0
8:58 am 08:58 Clear 34 1.2 22 -5.6 61 61 NNW 18 30 30.25 1024 10 16.0934 0 0
9:58 am 09:58 Clear 33 0.4 21 -5.9 63 63 NW 22 35 30.3 1026 10 16.0934 0 0
10:58 am 10:58 Clear 31 -0.7 21 -6.3 66 66 NNW 14 22 30.32 1027 10 16.0934 0 0
11:58 am 11:58 Clear 29 -1.9 17 -8.3 62 62 NW 10 17 30.35 1028 10 16.0934 0 0
12:58 pm 12:58 Clear 28 -2.5 11 -11.6 50 50 WNW 10 17 30.39 1029 10 16.0934 0 0
1:58 pm 13:58 Clear 27 -2.8 12 -11.2 53 53 NW 13 20 30.41 1030 10 16.0934 0 0
2:58 pm 14:58 Sunny 24 -4.6 11 -11.4 59 59 SW 5 7 30.44 1031 10 16.0934 0 0
3:58 pm 15:58 Sunny 28 -2.2 11 -11.6 49 49 NW 6 9 30.41 1030 10 16.0934 0 0
4:58 pm 16:58 Sunny 33 0.4 7 -13.7 34 34 N 13 20 30.39 1029 10 16.0934 0 0
5:58 pm 17:58 Sunny 34 1.1 7 -13.8 32 32 N 12 19 30.35 1028 10 16.0934 0 0
6:58 pm 18:58 Sunny 35 1.6 8 -13.3 32 32 N 6 9 30.32 1027 10 16.0934 0 0
7:58 pm 19:58 Sunny 35 1.4 9 -12.8 34 34 ENE 5 7 30.3 1026 10 16.0934 0 0
8:58 pm 20:58 Sunny 34 1.3 10 -12.2 36 36 ESE 3 6 30.28 1025 10 16.0934 0 0
9:58 pm 21:58 Sunny 34 1.2 11 -11.7 38 38 S 12 19 30.26 1025 10 16.0934 0 0
10:58 pm 22:58 Mostly Sunny 33 0.5 14 -10 46 46 S 12 19 30.26 1025 10 16.0934 0 0
11:58 pm 23:58 Mostly Cloudy 33 0.3 15 -9.5 48 48 S 14 22 30.23 1024 10 16.0934 0 0

Powered by AerisWeather